STARLINK-11536 [DTC] (62563 NORAD) Tracking and Keplerian Element Data

This shows tracking and keplerian element data for the satellite.

Feedback or suggestion? Click here.




ElementValue
Catalog62563
NameSTARLINK-11536 [DTC]
Epoch Orbit498
Epoch Day35.02846986
Epoch Year2025
RAAN26.4637
Inclination43.0017
Eccentricity0.0003958
Argument of Perigee288.5003
Mean Anonmoly71.5437
Mean Motion15.77889966
Decay Rate0.00051208
L11 62563U 25006K 25035.02846986 .00051208 00000+0 29481-3 0 9995
L22 62563 43.0017 26.4637 0003958 288.5003 71.5437 15.77889966 4982



Live tracking and technical data element details for STARLINK-11536 [DTC] (NORAD 62563). STARLINK-11536 [DTC] can be tracked NOW for your location showing map with azimuth and elevation plus other details from your city location.







IsCatalogInMostPopularTable: catalog: 62563, numindb: 14
Update: records affected: 1



GetName: 62563 STARLINK-11536 [DTC]

Hit Count: updated at: Mon, 19 May 2025 01:27:39 GMT